Regional Weather Roundup
Issued by NWS

Home | Current Version | Previous Version | Graphics & Text | Print | Product List | Glossary Off
Versions: 1 2 3 4 5 6 7 8 9 10 11 12 13 14 15 16 17 18 19 20 21 22 23 24 25 26 27 28 29 30 31 32 33 34 35 36 37 38 39 40 41 42 43 44 45 46 47 48 49 50

948
ASUS43 KTOP 142159
RWRKS

WEATHER ROUNDUP FOR KANSAS
NATIONAL WEATHER SERVICE GOODLAND KS
400 PM CST SUN FEB 14 2016

NOTE:  "FAIR" INDICATES FEW OR NO CLOUDS BELOW 12,000 FEET WITH NO
SIGNIFICANT WEATHER AND/OR OBSTRUCTIONS TO VISIBILITY.

KSZ001>006-013>018-027>032-041>047-142300-
NORTHWEST KANSAS

CITY           SKY/WX    TMP DP  RH WIND       PRES   REMARKS
GOODLAND       CLOUDY    47  27  45 SW13      29.87S
HAYS           CLOUDY    54  23  30 SW8       29.88S
HILL CITY      CLOUDY    51  26  37 SW10      29.87F
RUSSELL        SUNNY     54  23  30 W7        29.86R
$$

KSZ061>065-074>080-084>089-142300-
SOUTHWEST KANSAS

CITY           SKY/WX    TMP DP  RH WIND       PRES   REMARKS
DODGE CITY     CLOUDY    52  22  30 SW7       29.91R
ELKHART          N/A     54  20  26 S8          N/A
GARDEN CITY    CLOUDY    52  20  28 VRB6      29.88F
GREAT BEND     CLOUDY    55  23  28 NW6       29.89R
LIBERAL        CLOUDY    54  23  30 W5        29.91S
$$

KSZ066>073-081>083-090>101-142300-
SOUTHEAST KANSAS

CITY           SKY/WX    TMP DP  RH WIND       PRES   REMARKS
CHANUTE        CLOUDY    55  29  36 W5        29.86F
COFFEYVILLE    SUNNY     58  29  33 VRB3      29.86F
HUTCHINSON     MOSUNNY   56  27  32 W9        29.88S
MEDICINE LODGE   N/A     55  27  34 CALM      29.90R
NEWTON         CLOUDY    52  27  37 W7        29.90R
PARSONS        CLOUDY    57  30  35 CALM      29.87F
WICHITA INTL   CLOUDY    54  28  36 W5        29.88S
WICHITA JABRA  CLOUDY    52  27  38 W8        29.88R
WINFIELD       MOSUNNY   56  29  35 VRB5      29.87F
$$

KSZ007>012-019>026-033>040-048>060-102>105-142300-
NORTHEAST KANSAS

CITY           SKY/WX    TMP DP  RH WIND       PRES   REMARKS
CONCORDIA      CLOUDY    51  26  37 W10       29.85S
EMPORIA        CLOUDY    55  27  34 W8        29.85R
LAWRENCE       SUNNY     53  30  41 NW9       29.84F
MANHATTAN      SUNNY     55  26  32 NW8       29.85S
OLATHE IND     SUNNY     49  30  48 SW8       29.85F
OLATHE EXE     SUNNY     49  29  46 SW7       29.84F
SALINA         SUNNY     58  23  26 NW10      29.87S
TOPEKA BILLARD SUNNY     51  28  41 W6        29.85S
TOPEKA FORBES  SUNNY     55  31  39 NW6       29.84S
$$




USA.gov is the U.S. government's official web portal to all federal, state and local government web resources and services.